User: anonymous   Login
Location: Hackbridge
(51.3833°N, 0.1500°W)
Time: 02:55:02
(UTC+00:00)
Language:

STARLINK-60 - Orbit

View from above orbital plane
View from above orbital plane
View from above satellite
View from above satellite

Ground track
Ground track

The orbit data is extracted from the following two-line orbital elements,

1 44273U 19029AQ  19345.56235697  .00020516  00000-0  38296-3 0  9991
2 44273  53.0004 294.3394 0005977 156.7969 203.3308 15.48764584 31239
Epoch (UTC): 11 December 2019 13:29:47
Eccentricity: 0.0005977
inclination: 53.0004°
perigee height: 416 km
apogee height: 424 km
right ascension of ascending node: 294.3394°
argument of perigee: 156.7969°
revolutions per day: 15.48764584
mean anomaly at epoch: 203.3308°
orbit number at epoch: 3123

The dashed part of the orbit path shows where the satellite is in the earth's shadow,  

DLR